SCP
0 0 0 0 0 0 0 0 0 0 0 0 0 0 0 0 0 0 0 0 0 1 1 1 1 1 1 1 1 1 1 1 0 0 0 0 0 0 0 0 0 0 0 0 0 0 0 0 0
0 0 0 0 0 0 0 0 0 0 0 0 0 0 0 0 0 0 0 0 1 1 1 1 1 1 1 1 1 1 1 1 0 0 0 0 0 0 0 0 0 0 0 0 0 0 0 0 0
0 0 0 0 0 0 0 0 0 0 0 0 0 0 0 0 0 0 0 1 1 1 1 1 1 1 1 1 1 1 1 1 0 0 0 0 0 0 0 0 0 0 0 0 0 0 0 0 0
0 0 0 0 0 0 0 0 0 0 0 0 0 0 0 0 0 0 1 1 1 1 1 1 1 1 1 1 1 1 1 1 0 0 0 0 0 0 0 0 0 0 0 0 0 0 0 0 0
0 0 0 0 0 0 0 0 0 0 0 0 0 0 0 0 0 0 1 1 1 1 1 1 1 1 1 1 1 1 1 1 0 0 0 0 0 0 0 0 0 0 0 0 0 0 0 0 0
0 0 0 0 0 0 0 0 0 0 0 0 0 0 0 0 0 0 0 1 1 1 1 1 1 1 1 1 1 1 1 1 1 0 0 0 0 0 0 0 0 0 0 0 0 0 0 0 0
0 0 0 0 0 0 0 0 0 0 0 0 0 0 0 0 0 0 0 0 0 1 1 1 1 1 1 1 1 1 1 1 1 0 0 0 0 0 0 0 0 0 0 0 0 0 0 0 0
0 0 0 0 0 0 0 0 0 0 0 0 0 0 0 0 0 0 0 0 0 0 0 0 1 1 1 1 1 1 1 1 0 0 0 0 0 0 0 0 0 0 0 0 0 0 0 0 0
0 0 0 0 0 0 0 0 0 0 0 0 0 0 0 0 0 0 0 0 0 0 0 0 0 0 0 0 1 1 1 0 0 0 0 0 0 0 0 0 0 0 0 0 0 0 0 0 0
0 0 0 0 0 0 0 0 0 0 0 0 0 0 0 0 0 0 0 0 0 0 0 0 0 0 0 0 0 1 0 0 0 0 0 0 0 0 0 0 0 0 0 0 0 0 0 0 0
0 0 0 0 0 0 0 0 0 0 0 0 0 0 0 0 0 0 0 0 0 0 0 0 0 0 0 0 0 0 0 0 0 0 0 0 0 0 0 0 0 0 0 0 0 0 0 0 0
0 0 0 0 0 0 0 0 0 0 0 0 0 0 0 0 0 0 0 0 0 0 0 0 0 0 0 0 0 0 0 0 0 0 0 0 0 0 0 0 0 0 0 0 0 0 0 0 0
0 0 0 0 0 0 0 0 0 0 0 0 0 0 0 0 0 0 0 0 0 0 0 0 0 0 0 0 0 0 0 0 0 0 0 0 0 0 0 0 0 0 0 0 0 0 0 0 0
0 0 0 0 0 0 0 0 0 0 0 0 0 0 0 0 0 0 0 0 0 0 0 0 0 0 0 0 0 0 0 0 0 0 0 0 0 0 0 0 0 0 0 0 0 0 0 0 0
0 0 0 0 0 0 0 0 0 0 0 0 0 0 0 0 0 0 0 0 0 0 0 0 0 0 0 0 0 0 0 0 0 0 0 0 0 0 0 0 0 0 0 0 0 0 0 0 0
0 0 0 0 0 0 0 0 0 0 0 0 0 0 0 0 0 0 0 0 0 0 0 0 0 0 0 0 0 0 0 0 0 0 0 0 0 0 0 0 0 0 0 0 0 0 0 0 0
0 0 0 0 0 0 0 0 0 0 0 0 0 0 0 0 0 0 0 0 0 0 0 0 0 0 0 0 0 0 0 0 0 0 0 0 0 0 0 0 0 0 0 0 0 0 0 0 0
0 0 0 0 0 0 0 0 0 0 0 0 0 0 0 0 0 0 0 0 0 0 0 0 0 0 0 0 0 0 0 0 0 0 0 0 0 0 0 0 0 0 0 0 0 0 0 0 0
0 0 0 0 0 0 0 0 0 0 0 0 0 0 0 0 0 0 0 0 0 0 0 0 0 0 0 0 0 0 0 0 0 0 0 0 0 0 0 0 0 0 0 0 0 0 0 0 0
0 0 0 0 0 0 0 0 0 0 0 0 0 0 -0 0 0 0 0 0 0 0 0 0 0 0 0 0 0 0 0 0 0 0 0 0 0 0 0 0 0 0 0 0 0 0 0 0 0
0 0 0 0 0 0 0 0 0 0 0 0 -0 -0 0 0 0 0 0 0 0 0 0 0 0 0 0 0 0 0 0 0 0 0 0 0 0 0 0 0 0 0 0 0 0 0 0 -0 -0
0 0 0 0 0 0 0 0 0 0 0 0 0 0 0 0 0 0 0 0 0 0 0 0 0 0 0 0 0 0 0 0 0 0 0 0 0 0 0 0 0 0 0 0 0 0 0 0 -0
0 0 0 0 0 0 0 0 0 0 0 0 0 0 0 0 0 0 0 0 0 0 0 0 0 0 0 0 0 -0 0 0 0 0 0 0 0 0 0 0 0 0 0 0 0 0 0 0 0
0 0 0 0 0 0 0 0 0 0 0 0 0 0 0 0 0 0 0 0 0 0 0 0 0 0 0 -0 -0 -0 -0 -0 0 0 0 0 0 0 0 0 0 0 0 0 0 0 0 0 0
0 0 0 0 0 0 0 0 0 0 0 0 0 0 0 0 0 0 0 0 0 0 0 0 0 0 0 0 -0 -0 -0 0 0 0 0 0 0 0 0 0 0 0 0 0 0 0 0 0 0
0 0 0 0 0 0 0 0 0 0 0 0 0 0 0 0 0 0 0 0 0 0 0 0 0 0 0 0 0 0 0 0 0 0 0 0 0 0 0 0 0 0 0 0 0 0 0 0 0
0 0 0 0 0 0 0 0 0 0 0 0 0 0 0 0 0 0 0 0 0 0 0 0 0 0 0 0 0 0 0 0 0 0 0 0 0 0 0 0 0 0 0 0 0 0 0 0 0
0 0 0 0 0 0 0 0 0 0 0 0 0 0 0 0 0 0 0 0 0 0 0 0 0 0 0 0 0 0 0 0 0 -0 -0 -0 -0 0 0 0 0 0 0 0 0 0 0 0 0
0 0 0 0 0 0 0 0 0 0 0 0 0 0 0 0 0 0 0 0 0 0 0 0 0 0 0 0 0 0 0 0 0 -0 -0 -0 -0 0 0 0 0 0 0 0 0 0 0 0 0
0 0 0 0 0 0 0 0 -0 -0 0 0 0 0 0 0 0 0 0 0 0 0 0 0 0 0 0 0 0 0 0 0 0 -0 -0 -0 -0 0 0 0 0 0 0 0 0 0 0 0 0
Wind_Speed
10 6 2 4 6 4 2 4 2 2 2 2 1 2 4 3 3 3 1 4 7 8 7 10 11 11 11 11 11 10 10 10 9 9 9 9 9 8 8 8 8 8 8 7 7 7 7 7 6
4 3 4 5 5 2 4 4 2 2 2 1 2 3 3 2 2 4 2 3 7 8 6 8 10 10 11 10 10 10 10 9 9 9 8 8 8 8 8 8 7 7 7 7 6 7 6 6 5
5 2 4 4 3 5 4 3 4 2 2 2 3 3 3 1 1 2 3 6 7 6 5 7 10 10 10 10 10 9 9 9 8 8 8 8 8 8 7 7 6 6 6 6 6 6 5 5 4
3 4 4 4 3 4 3 3 2 2 3 3 2 3 2 2 1 3 6 7 8 5 4 6 10 9 10 9 9 9 8 8 8 8 8 7 7 7 7 6 5 5 5 5 5 4 4 4 3
3 4 3 1 3 3 3 3 2 1 2 2 2 1 2 3 2 6 7 8 8 5 4 5 9 9 9 9 8 8 8 7 8 8 7 7 7 7 6 6 5 5 5 4 4 4 3 3 2
4 4 3 2 3 2 3 3 1 0 1 2 2 1 2 1 3 4 6 7 7 6 4 4 7 8 8 8 8 8 7 7 7 7 7 7 6 6 6 6 5 5 4 4 4 3 3 2 2
4 3 2 2 2 2 3 2 0 1 1 2 1 1 1 1 1 3 5 6 6 6 5 3 4 5 7 7 7 7 7 6 6 6 6 6 5 5 6 5 5 4 4 4 3 3 2 2 2
3 3 1 1 2 4 3 3 1 1 3 1 1 4 3 4 1 3 5 5 5 4 4 4 3 3 3 4 7 7 6 6 5 5 5 4 4 4 4 4 4 4 3 3 3 2 2 3 3
3 3 1 3 3 3 3 3 3 2 1 1 0 3 4 3 3 4 4 4 4 4 3 3 3 2 2 3 5 6 6 5 5 4 4 4 2 2 2 3 3 2 3 3 3 3 3 3 4
4 2 4 3 2 3 4 3 3 2 2 1 2 2 1 4 4 4 4 5 4 4 3 3 3 3 2 2 3 2 2 3 3 2 3 2 2 1 2 3 3 3 3 2 3 4 4 3 2
3 4 4 3 3 4 4 4 2 1 4 4 4 3 2 2 2 3 4 5 5 5 4 3 3 3 3 2 2 2 2 2 3 3 3 3 2 2 2 1 1 2 2 1 2 2 2 2 1
1 3 3 3 3 3 3 2 2 3 6 6 5 5 4 4 5 5 5 5 4 4 4 3 3 3 3 3 2 3 2 2 2 2 3 3 2 2 1 1 1 1 1 1 1 1 1 2 1
1 3 2 3 4 3 2 3 3 6 7 4 2 3 5 6 5 4 4 5 5 5 4 4 4 4 3 3 2 2 3 2 2 2 2 3 2 2 1 1 1 1 1 1 1 1 1 1 1
2 2 4 4 4 3 3 5 2 7 4 1 2 4 5 6 5 3 4 4 4 4 4 4 4 4 4 3 2 2 2 2 2 2 2 3 2 2 2 1 1 1 1 0 0 0 1 1 1
1 2 5 3 2 2 2 5 5 6 1 1 2 3 3 3 3 4 5 5 5 4 4 4 4 4 4 4 3 2 3 3 2 2 2 2 2 2 2 1 1 1 1 1 1 1 1 1 1
2 2 3 4 2 2 1 6 7 4 1 2 2 2 2 2 3 3 3 4 4 4 4 4 3 4 4 4 3 2 3 3 2 2 2 2 2 2 2 1 0 1 1 1 1 1 1 1 1
2 2 3 5 2 1 1 7 7 4 2 3 3 2 2 1 1 1 3 4 4 4 4 4 3 3 4 4 4 2 3 3 2 2 2 2 2 2 2 1 0 1 1 1 1 1 1 1 1
3 3 3 4 3 2 3 8 9 5 3 4 3 3 2 2 2 2 3 4 4 4 4 4 4 3 4 4 4 3 3 2 2 2 2 2 2 2 2 1 1 1 1 1 1 1 1 1 1
2 2 5 6 4 3 5 8 10 6 3 4 4 3 3 3 2 2 3 4 4 3 3 4 4 3 3 3 3 2 1 1 1 1 2 2 2 2 2 1 1 1 1 1 1 1 1 1 1
1 2 4 5 4 3 5 8 8 5 4 4 5 5 4 2 1 3 4 3 4 4 3 3 3 3 3 2 2 2 2 1 1 1 1 2 2 1 2 2 1 1 1 1 1 1 1 1 1
2 3 4 5 6 3 4 8 5 4 2 2 2 3 4 5 5 4 4 4 4 4 4 4 3 3 3 3 3 3 2 2 1 1 1 1 1 1 1 1 1 1 1 0 0 1 2 1 0
3 3 3 3 3 4 1 5 7 4 3 2 2 2 3 4 4 5 5 4 4 4 3 3 3 3 3 3 3 4 3 2 2 1 1 1 1 1 1 1 1 1 1 1 0 0 1 2 1
4 3 3 3 1 3 2 2 9 3 4 5 4 4 3 4 4 4 5 5 4 3 3 3 3 3 2 3 4 3 2 1 1 1 1 1 1 1 1 1 1 1 1 1 1 1 0 1 2
1 3 4 3 3 2 3 3 7 4 5 4 3 3 3 3 3 3 3 4 3 3 3 3 3 2 2 3 3 3 3 2 2 1 1 1 0 0 0 1 1 1 1 0 0 0 0 1 1
3 4 4 6 3 5 2 3 9 6 4 4 4 4 3 3 4 3 3 3 4 4 4 3 3 2 2 2 2 3 3 3 3 3 2 1 1 1 1 1 1 1 1 1 1 0 0 1 1
1 4 4 3 4 5 3 5 7 4 3 1 1 3 2 3 3 4 4 3 4 5 4 4 4 3 2 2 2 2 2 2 2 2 2 2 1 1 2 2 2 1 1 1 1 1 1 1 1
2 2 3 3 1 3 6 6 7 2 2 2 1 2 1 2 2 3 3 3 3 4 4 5 4 3 3 3 2 2 2 2 2 2 2 1 1 1 1 2 2 2 2 2 1 1 2 2 2
2 3 3 3 2 4 6 5 5 4 3 1 1 1 1 1 1 1 2 3 3 3 3 3 3 3 3 3 3 2 2 2 2 2 2 2 2 1 1 2 2 2 2 2 2 2 2 2 2
3 2 3 3 3 3 4 7 5 5 4 3 3 3 3 2 2 2 2 2 2 2 3 3 3 3 3 3 3 2 2 2 2 2 2 2 2 2 2 2 2 2 2 2 2 3 3 3 3
5 5 6 4 4 4 3 9 4 2 2 3 3 3 2 2 2 2 2 1 1 2 2 3 4 4 4 4 3 3 3 2 2 3 3 2 3 3 3 2 2 3 3 3 3 4 4 4 4
Wind_Direction
331 333 39 55 61 59 233 250 243 313 325 314 347 100 121 127 152 168 143 128 125 136 147 145 141 138 136 133 129 126 123 122 118 117 117 116 113 110 109 108 106 103 98 94 89 86 83 79 76
331 342 50 63 97 139 254 250 250 247 252 326 18 62 76 58 64 102 95 125 126 134 139 142 136 135 133 132 130 129 128 127 123 119 120 120 118 115 110 109 108 106 101 94 90 84 81 76 73
332 25 79 82 130 182 211 224 227 271 318 26 22 36 78 112 86 128 146 130 117 120 129 142 135 136 134 131 130 131 130 129 126 124 121 122 123 120 116 110 108 107 102 96 91 86 82 75 70
33 40 58 84 199 223 209 246 256 321 350 22 67 41 16 324 208 150 133 119 114 110 114 137 136 137 137 135 132 130 131 133 132 128 125 124 125 122 117 112 109 107 105 102 96 88 85 77 68
58 76 79 87 236 251 256 271 271 10 335 347 66 88 316 322 93 122 124 117 116 112 112 130 134 134 135 135 133 130 131 136 136 134 132 128 124 123 115 111 110 110 110 107 101 93 85 74 56
52 69 104 208 246 265 280 287 301 26 311 332 61 92 256 327 85 115 121 121 123 121 115 119 129 134 132 134 132 132 131 134 138 137 136 131 123 120 120 111 109 107 109 107 100 95 84 69 40
98 100 156 194 235 260 267 302 230 237 280 270 154 126 250 287 84 113 116 115 118 119 112 108 122 131 136 135 133 130 129 128 128 131 130 125 121 116 117 113 113 109 103 100 92 82 69 43 19
118 100 118 227 210 239 284 313 275 230 239 256 122 153 217 240 191 105 107 110 114 113 114 114 115 110 132 141 136 130 126 121 115 113 118 116 116 115 110 112 112 106 99 93 85 67 48 21 8
83 75 214 226 211 236 287 300 297 271 194 349 329 208 221 180 140 112 112 111 119 118 118 123 124 117 135 155 141 131 129 122 110 103 103 103 107 111 108 107 109 102 92 79 61 40 31 22 10
94 152 225 227 227 245 276 264 272 315 328 312 327 323 144 147 149 138 155 159 153 153 152 143 138 145 149 155 137 135 132 122 104 100 99 92 86 93 102 90 85 75 66 51 39 29 22 23 5
154 197 230 253 265 256 270 285 274 210 269 254 241 238 186 175 168 173 187 174 171 173 166 157 151 150 144 136 153 133 122 118 109 104 95 89 76 67 70 66 50 45 53 35 18 18 13 12 12
195 248 241 270 291 274 261 261 288 237 246 256 224 193 195 192 199 193 198 186 172 169 168 159 154 139 140 132 148 138 129 125 118 117 110 106 94 70 66 63 41 40 36 36 21 11 8 15 18
233 266 282 281 296 289 286 270 269 266 266 262 200 175 191 196 208 203 200 181 169 169 167 162 157 144 139 124 135 133 137 135 129 124 120 119 118 112 82 73 55 31 34 49 28 14 20 21 12
244 287 303 295 293 298 281 285 279 272 274 251 183 198 200 200 196 178 180 175 171 171 166 162 160 151 140 127 135 151 137 131 124 124 126 123 126 129 120 94 63 20 352 356 53 40 49 25 31
294 325 322 300 272 271 306 306 266 269 288 260 222 215 199 196 182 176 179 178 170 172 160 155 156 146 135 126 138 144 135 126 118 116 111 111 116 124 122 105 63 348 346 7 37 34 49 48 39
5 12 322 302 283 278 102 278 282 280 244 266 264 230 201 205 193 185 179 171 156 157 152 152 154 142 130 123 115 122 122 117 113 105 92 91 96 105 105 102 59 337 8 35 54 43 51 35 24
19 323 286 304 302 310 195 269 289 297 248 255 258 237 220 215 212 191 174 163 151 155 151 144 135 131 124 115 104 104 112 108 106 97 89 85 81 92 99 100 70 40 48 32 44 56 57 30 359
259 272 278 280 294 314 277 272 288 295 259 248 237 223 218 209 221 189 165 151 147 146 148 140 129 121 113 99 94 79 78 80 78 79 79 81 74 74 86 74 42 52 60 35 49 56 40 38 346
232 245 273 273 277 294 274 281 287 287 264 249 236 214 217 228 242 166 162 148 137 133 138 137 134 130 118 111 112 114 102 90 85 86 88 80 69 72 80 71 43 51 67 51 68 82 58 29 18
244 265 282 293 302 287 285 288 284 278 247 230 221 219 213 217 202 170 166 149 149 152 148 138 140 137 130 125 125 129 132 122 115 92 74 81 74 62 81 80 60 57 70 42 58 96 104 35 39
281 235 253 277 314 324 319 309 294 293 273 258 232 208 197 194 188 179 168 170 163 165 168 159 149 139 134 128 111 98 77 69 66 68 55 58 77 67 81 93 95 79 94 84 46 124 138 165 349
263 259 258 281 335 300 1 299 289 282 290 272 247 223 209 205 184 180 174 174 180 184 167 152 146 138 142 136 135 139 147 158 192 177 151 88 80 85 84 87 106 102 90 85 6 85 168 160 193
237 289 291 278 241 301 295 228 285 302 275 267 245 229 215 198 183 186 185 178 181 171 159 152 138 132 132 136 146 144 145 156 140 115 121 99 77 94 106 115 111 100 85 82 37 29 116 164 185
276 5 4 28 69 295 246 190 279 262 249 263 245 219 208 191 180 182 179 159 155 144 142 138 132 134 142 135 133 145 155 154 145 161 189 197 182 94 155 141 139 149 160 186 210 183 161 182 187
58 64 18 358 357 259 272 215 253 263 261 237 219 205 203 186 171 167 163 165 162 161 161 156 150 154 158 144 145 155 165 168 183 193 196 196 201 214 224 208 204 204 210 214 204 170 239 205 197
187 140 156 217 249 287 316 247 259 287 300 292 167 164 167 172 175 178 180 178 176 176 171 164 167 166 165 165 173 168 170 178 194 201 196 195 208 223 217 210 216 220 221 226 206 196 238 215 214
156 189 174 146 257 286 284 288 301 339 8 24 69 113 152 189 187 191 187 180 183 181 181 176 174 177 183 182 176 180 176 180 195 198 191 196 209 215 205 200 214 226 222 218 208 220 236 213 221
164 151 105 136 191 268 290 278 265 284 277 270 210 197 224 234 214 201 201 197 191 189 187 175 181 195 203 193 192 193 193 199 197 185 195 206 220 222 214 215 222 235 234 223 211 224 232 217 232
167 167 154 160 178 185 268 271 237 235 234 220 227 220 207 209 214 209 206 203 182 175 183 184 190 199 202 200 200 198 204 206 201 200 212 214 221 219 220 224 225 231 237 235 226 231 228 225 240
192 189 161 173 226 199 216 267 276 240 231 209 225 233 218 208 214 207 195 175 179 199 205 200 198 201 205 199 193 200 206 204 207 217 223 216 219 223 226 224 226 235 239 238 235 238 237 226 235